ASA569 KLAX-KLAS

Flight info

Callsign ASA569
Flight time N/A
Altitude 29000
Route ORCKA5 MISEN RNDRZ4
Aircraft B739/M-SDE2E3FGHIRWXY/LB1

Departure

Time 2026-04-25 03:58
Airport Los Angeles International Airport (KLAX)

Arrival

Time N/A
Airport Harry Reid International Airport (KLAS)
Time Latitude Longitude Altitude Speed Heading
2026-04-25 03:20 33.94044 -118.40258 120 ft 0 kts 84°
2026-04-25 03:42 33.94043 -118.40270 125 ft 2 kts 84°
2026-04-25 03:42 33.94041 -118.40289 123 ft 2 kts 84°
2026-04-25 03:43 33.94039 -118.40309 120 ft 2 kts 88°
2026-04-25 03:43 33.94041 -118.40328 120 ft 2 kts 123°
2026-04-25 03:43 33.94049 -118.40338 121 ft 1 kts 172°
2026-04-25 03:43 33.94055 -118.40339 121 ft 0 kts 178°
2026-04-25 03:44 33.94056 -118.40315 121 ft 0 kts 178°
2026-04-25 03:45 33.94054 -118.40314 124 ft 1 kts 178°
2026-04-25 03:46 33.94041 -118.40313 120 ft 3 kts 173°
2026-04-25 03:46 33.94010 -118.40307 123 ft 6 kts 171°
2026-04-25 03:46 33.93992 -118.40304 123 ft 0 kts 170°
2026-04-25 03:47 33.93991 -118.40304 123 ft 1 kts 170°
2026-04-25 03:47 33.93981 -118.40302 123 ft 1 kts 170°
2026-04-25 03:47 33.93977 -118.40301 123 ft 1 kts 170°
2026-04-25 03:47 33.93976 -118.40301 123 ft 0 kts 170°
2026-04-25 03:51 33.93972 -118.40300 122 ft 2 kts 170°
2026-04-25 03:51 33.93950 -118.40286 123 ft 5 kts 140°
2026-04-25 03:51 33.93938 -118.40236 120 ft 8 kts 88°
2026-04-25 03:51 33.93945 -118.40153 125 ft 11 kts 83°
2026-04-25 03:52 33.93928 -118.40062 123 ft 12 kts 131°
2026-04-25 03:52 33.93885 -118.39980 125 ft 12 kts 99°
2026-04-25 03:52 33.93891 -118.39885 125 ft 11 kts 82°
2026-04-25 03:52 33.93902 -118.39794 125 ft 11 kts 81°
2026-04-25 03:53 33.93914 -118.39705 125 ft 11 kts 81°
2026-04-25 03:53 33.93923 -118.39614 122 ft 11 kts 85°
2026-04-25 03:53 33.93929 -118.39520 125 ft 11 kts 85°
2026-04-25 03:53 33.93936 -118.39431 122 ft 9 kts 84°
2026-04-25 03:54 33.93943 -118.39358 123 ft 7 kts 83°
2026-04-25 03:54 33.93949 -118.39300 125 ft 7 kts 82°
2026-04-25 03:54 33.93956 -118.39243 122 ft 7 kts 81°
2026-04-25 03:54 33.93962 -118.39201 125 ft 1 kts 80°
2026-04-25 03:55 33.93964 -118.39190 124 ft 1 kts 83°
2026-04-25 03:55 33.93965 -118.39172 123 ft 4 kts 85°
2026-04-25 03:55 33.93970 -118.39115 124 ft 8 kts 84°
2026-04-25 03:55 33.93976 -118.39049 125 ft 8 kts 84°
2026-04-25 03:56 33.93982 -118.38985 125 ft 8 kts 82°
2026-04-25 03:56 33.93990 -118.38923 125 ft 7 kts 82°
2026-04-25 03:56 33.93997 -118.38862 125 ft 7 kts 82°
2026-04-25 03:56 33.94009 -118.38756 125 ft 17 kts 82°
2026-04-25 03:57 33.94026 -118.38599 125 ft 20 kts 82°
2026-04-25 03:57 33.94043 -118.38439 123 ft 17 kts 82°
2026-04-25 03:57 33.94017 -118.38341 122 ft 12 kts 148°
2026-04-25 03:57 33.93952 -118.38374 122 ft 12 kts 252°
2026-04-25 03:58 33.93920 -118.38608 125 ft 63 kts 262°
2026-04-25 03:58 33.93834 -118.39453 123 ft 138 kts 263°
2026-04-25 03:58 33.93683 -118.40816 351 ft 181 kts 262°
2026-04-25 03:58 33.93528 -118.42472 807 ft 214 kts 262°
2026-04-25 03:59 33.93344 -118.44367 1522 ft 229 kts 263°
2026-04-25 03:59 33.93151 -118.46217 2793 ft 225 kts 259°
2026-04-25 03:59 33.92668 -118.48111 3443 ft 251 kts 250°
2026-04-25 03:59 33.91781 -118.49956 4388 ft 262 kts 223°
2026-04-25 04:00 33.90168 -118.50959 5628 ft 265 kts 192°
2026-04-25 04:00 33.88305 -118.50908 6722 ft 273 kts 166°
2026-04-25 04:00 33.86610 -118.49835 7731 ft 282 kts 140°
2026-04-25 04:00 33.85448 -118.47941 8490 ft 291 kts 113°
2026-04-25 04:01 33.85121 -118.45509 9066 ft 302 kts 84°
2026-04-25 04:01 33.85788 -118.43108 9721 ft 306 kts 56°
2026-04-25 04:01 33.87222 -118.41207 9996 ft 307 kts 33°
2026-04-25 04:01 33.87645 -118.40868 9990 ft 306 kts 26°